Weather History for KFSD - May, 2013

Change the Weather History Date:

Monday, May 13, 2013

  Actual Average Record
Temperature  
Mean Temperature 70 °F 57 °F  
Max Temperature 89 °F 69 °F 92 °F (1987)
Min Temperature 50 °F 45 °F 24 °F (1997)
Degree Days  
Heating Degree Days 0 9  
Month to date heating degree days 208 136  
Since 1 July heating degree days 7749 7543  
Cooling Degree Days 5 1  
Month to date cooling degree days 5 9  
Year to date cooling degree days 9 14  
Growing Degree Days 18 (Base 50)    
Moisture  
Dew Point 40 °F    
Average Humidity 40    
Maximum Humidity 56    
Minimum Humidity 24    
Precipitation  
Precipitation 0.00 in 0.11 in 1.70 in (1957)
Month to date precipitation 1.68 1.37  
Year to date precipitation 7.04 7.30  
Snow  
Snow 0.00 in 0.00 in - ()
Month to date snowfall 1.5 0.4  
Since 1 July snowfall 43.3 44.9  
Snow Depth 0.00 in    
Sea Level Pressure  
Sea Level Pressure 29.89 in    
Wind  
Wind Speed 10 mph (SSW)    
Max Wind Speed 23 mph    
Max Gust Speed 30 mph    
Visibility 10 miles    
Events      
T = Trace of Precipitation, MM = Missing Value Source: NWS Daily Summary

Daily Weather History Graph

Daily Weather History Graph

Search for Another Location

Airport or City:

Trip Planner

Search our weather history database for the weather conditions in past years. The results will help you decide how hot, cold, wet, or windy it might be!

Date:

Astronomy

May. 13, 2013 Rise Set
Actual Time 6:04 AM CDT 8:43 PM CDT
Civil Twilight 5:31 AM CDT 9:16 PM CDT
Nautical Twilight 4:49 AM CDT 9:57 PM CDT
Astronomical Twilight 4:02 AM CDT 10:45 PM CDT
Moon 8:50 AM CDT (5/13) 11:53 PM CDT (5/13)
Length of Visible Light 15h 45m
Length of Day
14h 39m
Waxing Crescent, 12% of the Moon is Illuminated
May 13
Waxing Crescent
May 17
First Quarter
May 24
Full
May 31
Last Quarter
Jun 8
New

Hourly Weather History & Observations

Time (CDT) Temp. Dew Point Humidity Pressure Visibility Wind Dir Wind Speed Gust Speed Precip Events Conditions
12:56 AM 52.0 °F 24.1 °F 34% 30.09 in 10.0 mi SSE 6.9 mph - N/A   Clear
1:56 AM 52.0 °F 23.0 °F 32% 30.08 in 10.0 mi South 9.2 mph - N/A   Clear
2:56 AM 51.1 °F 24.1 °F 35% 30.07 in 10.0 mi South 8.1 mph - N/A   Clear
3:56 AM 51.1 °F 24.1 °F 35% 30.05 in 10.0 mi South 9.2 mph - N/A   Clear
4:56 AM 50.0 °F 23.0 °F 35% 30.04 in 10.0 mi SSE 11.5 mph - N/A   Clear
5:56 AM 51.1 °F 25.0 °F 36% 30.01 in 10.0 mi South 16.1 mph 21.9 mph N/A   Clear
6:56 AM 51.1 °F 28.9 °F 43% 30.01 in 10.0 mi South 9.2 mph - N/A   Clear
7:56 AM 52.0 °F 34.0 °F 50% 29.99 in 10.0 mi South 9.2 mph - N/A   Clear
8:56 AM 55.4 °F 39.2 °F 54% 29.97 in 10.0 mi South 13.8 mph - N/A   Partly Cloudy
9:56 AM 61.0 °F 43.0 °F 52% 29.95 in 10.0 mi South 16.1 mph - N/A   Partly Cloudy
10:56 AM 66.0 °F 46.0 °F 48% 29.92 in 10.0 mi South 13.8 mph - N/A   Clear
11:56 AM 70.0 °F 48.0 °F 46% 29.88 in 10.0 mi South 17.3 mph 24.2 mph N/A   Clear
12:56 PM 73.0 °F 48.0 °F 41% 29.85 in 10.0 mi SSW 13.8 mph 26.5 mph N/A   Clear
1:56 PM 78.1 °F 48.9 °F 36% 29.82 in 10.0 mi South 19.6 mph 27.6 mph N/A   Clear
3:56 PM 82.9 °F 50.0 °F 32% 29.78 in 10.0 mi SW 11.5 mph 21.9 mph N/A   Clear
4:56 PM 87.1 °F 50.0 °F 28% 29.75 in 10.0 mi WSW 11.5 mph 20.7 mph N/A   Clear
5:56 PM 88.0 °F 46.9 °F 24% 29.74 in 10.0 mi West 9.2 mph 18.4 mph N/A   Clear
6:56 PM 87.1 °F 48.0 °F 26% 29.73 in 10.0 mi West 6.9 mph - N/A   Clear
7:56 PM 84.0 °F 50.0 °F 31% 29.73 in 10.0 mi West 5.8 mph - N/A   Clear
8:56 PM 75.0 °F 50.0 °F 41% 29.73 in 10.0 mi West 4.6 mph - N/A   Clear
9:56 PM 70.0 °F 48.9 °F 47% 29.75 in 10.0 mi West 6.9 mph - N/A   Clear
10:56 PM 66.9 °F 48.9 °F 52% 29.76 in 10.0 mi WSW 3.5 mph - N/A   Clear
11:56 PM 64.0 °F 48.9 °F 58% 29.75 in 10.0 mi WSW 3.5 mph - N/A   Clear